Starlink 5998

operational
NORAD ID: 56468 Int'l Des: 2023-064 Owner: SPXS Country: US Constellation: starlink
LEOCIRCULAR

About Starlink 5998

Description loading...

Live Position

Loading 3D Globe...

Upcoming Passes

Altitude History

Altitude vs Time

uPlot chart will show altitude changes over time

Two-Line Element Set

1 56468U 23064W 25303.19438801 -.00000601 00000-0 -42602-4 0 9998
2 56468 69.9988 113.2995 0002914 266.8117 93.2709 14.98327672135702
Epoch: Oct 30, 2025 • Age: 13 hours

Current Status

Altitude 578.2 km
Velocity 7.57 km/s
Sub-Earth Point -18.61°S, 164.75°E
Launch Date May 10, 2023
Age 2.4 years
Type internet

Technical Details

Classification Payload
Mass 305.00 kg
Dry Mass 290.00 kg
Total Mass 305.00 kg
Length 0.20 m
Diameter 2.80 m
Span 9.00 m
Shape Box + pan
Manufacturer SPXS
Bus Type Starlink
Phase Status In Orbit
Owner/State SPXS/US

Large Constellations

Loading constellations...